Weather reports worldwide

Advertisment
Solenzara, France (7765): temperature & dewpoint: 20.03.2019 08:00:00 - 26.03.2019 08:00:00 (CET)Solenzara, France (7765): temperature 5cm: 20.03.2019 08:00:00 - 26.03.2019 08:00:00 (CET)Solenzara, France (7765): temperature -20cm: 20.03.2019 08:00:00 - 26.03.2019 08:00:00 (CET)Solenzara, France (7765): wind speed & gusts: 20.03.2019 08:00:00 - 26.03.2019 08:00:00 (CET)Solenzara, France (7765): wind direction: 20.03.2019 08:00:00 - 26.03.2019 08:00:00 (CET)Solenzara, France (7765): reduced air pressure: 20.03.2019 08:00:00 - 26.03.2019 08:00:00 (CET)Solenzara, France (7765): visibility: 20.03.2019 08:00:00 - 26.03.2019 08:00:00 (CET)Solenzara, France (7765): sunshine duration: 20.03.2019 08:00:00 - 26.03.2019 08:00:00 (CET)Solenzara, France (7765): precipitation: 20.03.2019 08:00:00 - 26.03.2019 08:00:00 (CET)
Date & Time tt [°C] td [°C] tt 5cm [°C] tt -20cm [°C] ff [km/h] ff [kn] fx [km/h] fx [kn] dd ppp [hPa] vv [km] sd [min] rr [mm]
26.03.2019 08:00:00 - - - - - - - - - - - - -
26.03.2019 07:00:00 7,6 5,6 6,9 15,5 47 25 70 38 N 1012,8 13 0 2,2
26.03.2019 06:00:00 10,1 8,0 8,9 15,5 51 27 70 38 NNE 1010,6 7 0 1,2
26.03.2019 05:00:00 12,8 6,6 10,3 15,6 21 12 40 21 N 1009,0 20 0 0,0
26.03.2019 04:00:00 11,9 6,0 10,4 15,7 3 2 9 5 NNE 1008,4 20 0 0,0
26.03.2019 03:00:00 11,7 5,6 10,3 15,9 6 3 18 10 WNW 1008,8 20 0 0,0
26.03.2019 02:00:00 11,6 6,7 9,1 16,0 7 4 22 12 NW 1009,4 20 0 0,0
26.03.2019 01:00:00 11,0 7,5 9,6 16,0 11 6 26 14 W 1009,6 20 0 0,0
26.03.2019 00:00:00 10,1 8,5 8,9 16,1 9 5 14 8 W 1009,6 20 0 0,0
25.03.2019 23:00:00 10,0 9,4 9,7 16,2 7 4 12 6 WSW 1009,5 1,3 0 0,0
25.03.2019 22:00:00 11,2 10,6 8,3 16,3 4 2 14 8 W 1008,9 0,6 0 0,0
25.03.2019 21:00:00 11,5 9,2 7,8 16,3 6 4 13 7 N 1008,8 20 0 0,0
25.03.2019 20:00:00 11,9 9,1 7,5 16,2 5 3 13 7 WNW 1008,7 20 0 0,0
25.03.2019 19:00:00 13,4 10,2 8,2 16,2 4 2 8 4 NNW 1009,1 20 6 0,0
25.03.2019 18:00:00 15,4 10,8 13,6 16,0 5 3 18 10 E 1009,7 20 60 0,0
25.03.2019 17:00:00 16,2 10,1 16,6 15,8 10 6 20 11 NE 1010,4 20 60 0,0
25.03.2019 16:00:00 17,0 10,4 23,8 15,5 9 5 16 9 E 1010,7 20 60 0,0
25.03.2019 15:00:00 17,1 9,8 25,5 15,3 8 5 18 10 ESE 1011,6 20 60 0,0
25.03.2019 14:00:00 17,2 9,6 30,4 15,0 11 6 16 9 E 1012,8 20 60 0,0
25.03.2019 13:00:00 17,6 8,7 30,0 14,8 7 4 18 10 ESE 1013,9 17 60 0,0
25.03.2019 12:00:00 16,8 8,5 26,2 14,7 10 5 19 11 ESE 1015,1 20 60 0,0
25.03.2019 11:00:00 16,4 7,9 25,4 14,7 13 7 18 10 SSE 1015,9 20 60 0,0
25.03.2019 10:00:00 17,4 7,2 26,4 14,7 10 5 15 8 SE 1016,4 20 60 0,0
25.03.2019 09:00:00 18,1 3,9 16,1 14,8 0 0 11 6 N 1016,7 20 60 0,0
25.03.2019 08:00:00 13,6 2,2 9,6 14,9 7 4 18 10 W 1017,0 20 60 0,0
25.03.2019 07:00:00 10,3 1,1 7,6 15,0 11 6 19 10 W 1017,4 20 30 0,0
25.03.2019 06:00:00 9,8 0,9 7,2 15,2 11 6 15 8 W 1017,4 20 0 0,0
25.03.2019 05:00:00 10,0 0,8 7,5 15,3 9 5 16 9 WNW 1017,8 20 0 0,0
25.03.2019 04:00:00 10,1 0,9 8,0 15,4 10 6 16 9 W 1018,0 20 0 0,0
25.03.2019 03:00:00 10,7 1,0 8,4 15,6 12 7 16 8 W 1018,5 20 0 0,0
25.03.2019 02:00:00 11,6 1,2 9,2 15,7 10 5 16 8 W 1018,8 20 0 0,0
25.03.2019 01:00:00 11,7 1,6 9,0 15,8 9 5 15 8 W 1019,1 20 0 0,0
25.03.2019 00:00:00 12,3 1,3 8,3 15,9 9 5 13 7 W 1019,5 20 0 0,0
24.03.2019 23:00:00 11,8 1,7 8,9 16,0 8 4 17 9 NW 1020,0 20 0 0,0
24.03.2019 22:00:00 13,3 2,5 11,0 16,0 10 6 16 9 W 1020,0 20 0 0,0
24.03.2019 21:00:00 13,6 3,4 11,1 16,0 10 5 14 8 W 1020,2 20 0 0,0
24.03.2019 20:00:00 13,8 4,1 9,6 16,0 10 5 14 7 W 1020,2 20 0 0,0
24.03.2019 19:00:00 15,1 10,3 9,8 15,9 2 1 11 6 W 1020,0 20 6 0,0
24.03.2019 18:00:00 16,7 11,8 15,2 15,6 9 5 12 6 NNE 1019,9 20 60 0,0
24.03.2019 17:00:00 18,5 11,8 18,8 15,4 7 4 10 6 ENE 1020,1 20 60 0,0
24.03.2019 16:00:00 19,6 7,0 24,9 15,2 8 4 14 8 SE 1020,3 20 60 0,0
24.03.2019 15:00:00 20,0 5,2 28,0 14,8 8 4 13 7 ESE 1020,7 18 60 0,0
24.03.2019 14:00:00 20,4 3,1 31,9 14,6 9 5 13 7 SE 1021,5 20 60 0,0
24.03.2019 13:00:00 19,8 5,4 30,9 14,4 8 4 13 7 ESE 1022,4 20 60 0,0
24.03.2019 12:00:00 19,1 6,6 31,2 14,2 9 5 13 7 SE 1022,8 20 60 0,0
24.03.2019 11:00:00 18,8 5,6 30,3 14,2 4 2 13 7 E 1023,0 20 60 0,0
24.03.2019 10:00:00 19,2 4,1 22,8 14,2 4 2 11 6 ENE 1023,1 20 60 0,0
24.03.2019 09:00:00 15,9 1,6 14,1 14,3 7 4 13 7 NNE 1023,0 20 60 0,0
24.03.2019 08:00:00 13,6 2,5 10,9 14,4 8 4 18 10 N 1022,7 20 60 0,0
24.03.2019 07:00:00 12,3 -2,7 8,1 14,6 7 4 15 8 WSW 1022,5 20 29 0,0
24.03.2019 06:00:00 10,9 -2,9 8,4 14,7 8 5 18 10 W 1022,4 20 0 0,0
24.03.2019 05:00:00 10,8 -2,6 4,4 14,8 9 5 19 11 W 1022,3 20 0 0,0
24.03.2019 04:00:00 11,0 -2,4 8,8 15,0 13 7 21 11 W 1022,4 20 0 0,0
24.03.2019 03:00:00 11,0 -1,8 8,3 15,1 11 6 19 11 W 1022,6 20 0 0,0
24.03.2019 02:00:00 10,5 -0,6 7,8 15,2 11 6 14 8 W 1022,8 20 0 0,0
24.03.2019 01:00:00 10,9 -0,6 4,3 15,3 6 3 14 8 WNW 1022,8 20 0 0,0
24.03.2019 00:00:00 11,6 0,1 4,3 15,4 0 0 14 8 N 1023,0 20 0 0,0
23.03.2019 23:00:00 11,7 0,1 6,0 15,5 6 3 16 9 SSW 1022,9 20 0 0,0
23.03.2019 22:00:00 13,9 0,2 11,6 15,5 12 6 23 13 W 1022,7 20 0 0,0
23.03.2019 21:00:00 13,6 1,6 11,3 15,5 11 6 20 11 W 1022,7 20 0 0,0
23.03.2019 20:00:00 13,6 3,4 11,3 15,5 10 5 16 9 W 1022,6 20 0 0,0
23.03.2019 19:00:00 14,1 3,8 9,1 15,4 8 5 13 7 W 1022,3 20 5 0,0
23.03.2019 18:00:00 16,5 1,7 12,8 15,2 3 2 10 5 WNW 1022,0 20 26 0,0
23.03.2019 17:00:00 17,6 2,7 18,9 15,0 8 5 20 11 ENE 1022,0 20 60 0,0
23.03.2019 16:00:00 18,9 1,4 24,4 14,7 8 4 19 11 E 1022,2 20 60 0,0
23.03.2019 15:00:00 18,7 3,7 25,9 14,4 6 4 13 7 ENE 1022,4 19 60 0,0
23.03.2019 14:00:00 18,4 5,9 30,7 14,2 9 5 16 9 E 1023,0 20 60 0,0
23.03.2019 13:00:00 17,7 8,0 29,1 14,0 9 5 23 12 ESE 1023,5 19 60 0,0
23.03.2019 12:00:00 17,9 7,9 27,6 13,9 17 9 25 14 ENE 1023,7 20 60 0,0
23.03.2019 11:00:00 18,2 4,7 25,4 13,8 15 8 21 11 ENE 1023,4 20 60 0,0
23.03.2019 10:00:00 18,3 1,7 25,4 13,9 11 6 17 9 NE 1023,9 20 60 0,0
23.03.2019 09:00:00 16,1 3,5 12,9 13,9 5 3 11 6 WSW 1023,9 20 60 0,0
23.03.2019 08:00:00 11,5 4,7 7,5 14,1 5 3 13 7 WNW 1024,0 19 37 0,0
23.03.2019 07:00:00 10,0 2,8 8,1 14,2 8 4 21 12 NNW 1023,8 20 1 0,0
23.03.2019 06:00:00 10,8 2,4 4,4 14,3 11 6 17 9 W 1023,6 20 0 0,0
23.03.2019 05:00:00 9,2 2,7 5,3 14,4 5 3 16 8 NW 1023,6 20 0 0,0
23.03.2019 04:00:00 11,3 2,3 7,5 14,5 10 5 19 10 W 1023,4 20 0 0,0
23.03.2019 03:00:00 10,7 2,8 6,5 14,7 9 5 15 8 W 1023,7 20 0 0,0
23.03.2019 02:00:00 10,5 3,3 4,7 14,8 7 4 12 7 W 1024,1 20 0 0,0
23.03.2019 01:00:00 10,2 3,5 4,7 14,8 6 4 17 9 WSW 1024,4 20 0 0,0
23.03.2019 00:00:00 11,9 3,6 8,8 14,9 13 7 18 10 W 1024,4 20 0 0,0
22.03.2019 23:00:00 11,1 4,1 7,4 15,0 11 6 16 9 W 1024,9 20 0 0,0
22.03.2019 22:00:00 12,5 4,2 9,3 15,1 8 4 13 7 W 1025,1 20 0 0,0
22.03.2019 21:00:00 12,1 4,8 9,6 15,1 9 5 16 9 W 1025,2 20 0 0,0
22.03.2019 20:00:00 12,7 5,6 8,9 15,0 7 4 14 8 W 1025,1 20 0 0,0
22.03.2019 19:00:00 13,3 5,2 8,6 14,9 6 4 10 5 W 1025,0 20 5 0,0
22.03.2019 18:00:00 15,7 4,4 12,6 14,7 3 2 16 8 NNE 1024,9 20 60 0,0
22.03.2019 17:00:00 16,6 4,6 17,1 14,5 10 5 18 10 NE 1024,9 20 60 0,0
22.03.2019 16:00:00 17,7 4,6 23,1 14,2 7 4 14 8 NNE 1025,3 20 60 0,0
22.03.2019 15:00:00 17,0 5,0 24,9 14,0 11 6 22 12 E 1025,9 20 60 0,0
22.03.2019 14:00:00 17,4 4,0 25,6 13,7 16 9 23 12 ENE 1026,2 20 60 0,0
22.03.2019 13:00:00 16,3 6,4 25,8 13,6 15 8 23 12 NE 1026,8 20 60 0,0
22.03.2019 12:00:00 17,2 6,1 26,8 13,4 14 7 24 13 ENE 1027,1 20 60 0,0
22.03.2019 11:00:00 17,3 8,4 23,7 13,4 16 9 24 13 ENE 1027,1 20 60 0,0
22.03.2019 10:00:00 17,1 4,1 20,3 13,4 17 9 24 13 NE 1026,9 20 60 0,0
22.03.2019 09:00:00 15,9 4,6 15,0 13,4 14 8 19 10 NNE 1026,9 20 60 0,0
22.03.2019 08:00:00 12,8 3,4 9,0 13,6 5 3 18 10 W 1027,1 20 60 0,0
22.03.2019 07:00:00 9,6 2,7 6,6 13,6 11 6 17 9 W 1026,7 20 11 0,0
22.03.2019 06:00:00 8,9 2,7 4,5 13,7 9 5 16 9 W 1026,3 20 0 0,0
22.03.2019 05:00:00 9,2 2,7 7,3 13,8 10 6 19 11 W 1026,1 20 0 0,0
22.03.2019 04:00:00 9,1 3,1 7,1 13,9 11 6 18 10 W 1026,2 20 0 0,0
22.03.2019 03:00:00 10,6 3,1 7,5 14,0 7 4 14 7 WNW 1026,3 20 0 0,0
22.03.2019 02:00:00 10,9 2,5 8,0 14,1 8 4 18 10 NW 1026,3 20 0 0,0
22.03.2019 01:00:00 10,5 2,6 7,1 14,2 9 5 12 7 WNW 1026,2 20 0 0,0
22.03.2019 00:00:00 11,1 2,6 4,9 14,3 7 4 9 5 WNW 1026,0 20 0 0,0
21.03.2019 23:00:00 10,8 2,9 6,1 14,3 4 2 14 7 NW 1025,9 20 0 0,0
21.03.2019 22:00:00 11,9 2,6 9,6 14,3 10 5 16 9 W 1025,7 20 0 0,0
21.03.2019 21:00:00 12,7 2,8 7,3 14,3 11 6 17 9 W 1025,7 20 0 0,0
21.03.2019 20:00:00 13,9 2,8 9,5 14,3 4 2 13 7 NW 1025,5 20 0 0,0
21.03.2019 19:00:00 13,6 3,4 10,6 14,2 8 4 14 7 W 1025,4 20 4 0,0
21.03.2019 18:00:00 15,9 4,3 13,7 14,0 9 5 22 12 NNW 1025,1 20 60 0,0
21.03.2019 17:00:00 15,4 6,4 15,9 13,9 18 10 34 18 NE 1025,1 20 60 0,0
21.03.2019 16:00:00 15,2 6,7 17,9 13,7 25 13 41 22 NE 1025,2 20 60 0,0
21.03.2019 15:00:00 15,6 6,3 19,1 13,5 27 15 40 21 NE 1025,5 20 60 0,0
21.03.2019 14:00:00 14,9 5,4 20,2 13,4 32 17 49 27 NE 1025,8 20 60 0,0
21.03.2019 13:00:00 15,0 5,2 19,5 13,3 34 18 52 28 NE 1026,6 19 60 0,0
21.03.2019 12:00:00 14,3 5,4 18,6 13,2 35 19 48 26 NE 1026,9 20 60 0,0
21.03.2019 11:00:00 14,7 5,2 18,8 13,2 35 19 46 25 NE 1026,9 20 60 0,0
21.03.2019 10:00:00 14,2 3,3 17,2 13,2 28 15 40 22 NNE 1026,9 30 60 0,0
21.03.2019 09:00:00 13,3 1,9 11,0 13,3 16 8 27 14 N 1027,1 31 60 0,0
21.03.2019 08:00:00 10,6 -0,9 5,0 13,4 15 8 21 11 N 1026,7 20 60 0,0
21.03.2019 07:00:00 6,5 -1,2 2,7 13,6 6 3 12 6 NNW 1026,3 20 15 0,0
21.03.2019 06:00:00 6,3 -1,6 3,4 13,7 9 5 14 8 NNW 1025,9 60 0 0,0
21.03.2019 05:00:00 6,2 -0,8 4,1 13,8 8 4 15 8 WNW 1026,1 20 0 0,0
21.03.2019 04:00:00 6,2 0,1 4,1 13,9 12 6 16 9 W 1025,9 20 0 0,0
21.03.2019 03:00:00 7,0 0,0 5,1 14,0 9 5 24 13 W 1025,9 20 0 0,0
21.03.2019 02:00:00 8,9 -0,2 6,7 14,1 14 7 24 13 NNW 1026,5 20 0 0,0
21.03.2019 01:00:00 8,8 0,7 6,0 14,1 13 7 22 12 NNW 1026,9 20 0 0,0
21.03.2019 00:00:00 9,2 1,1 7,2 14,2 12 7 26 14 N 1026,8 20 0 0,0
20.03.2019 23:00:00 10,4 1,0 8,4 14,2 14 8 28 15 NNW 1027,1 20 0 0,0
20.03.2019 22:00:00 11,1 1,1 9,3 14,2 16 9 29 15 N 1026,9 20 0 0,0
20.03.2019 21:00:00 12,1 0,8 10,8 14,3 22 12 36 20 N 1026,5 20 0 0,0
20.03.2019 20:00:00 12,4 1,1 11,2 14,2 19 11 32 18 NNW 1026,2 20 0 0,0
20.03.2019 19:00:00 12,1 2,0 11,2 14,2 22 12 39 21 N 1025,6 20 0 0,0
20.03.2019 18:00:00 13,2 2,7 12,8 14,1 24 13 40 22 N 1025,1 20 7 0,0
20.03.2019 17:00:00 13,9 2,5 13,8 14,0 26 14 41 22 NNE 1024,6 20 36 0,0
20.03.2019 16:00:00 15,5 3,3 15,8 13,8 28 15 42 23 NNE 1024,4 20 60 0,0
20.03.2019 15:00:00 14,5 2,7 16,5 13,7 28 15 46 25 NE 1024,8 20 17 0,0
20.03.2019 14:00:00 14,0 3,7 15,9 13,6 30 16 46 25 NE 1025,0 20 1 0,0
20.03.2019 13:00:00 13,4 4,0 16,3 13,5 32 18 48 26 NE 1025,3 20 43 0,0
20.03.2019 12:00:00 13,8 3,0 15,6 13,4 29 15 46 25 NNE 1025,6 20 44 0,0
20.03.2019 11:00:00 14,6 3,4 16,4 13,4 26 14 47 25 N 1025,3 20 44 0,0
20.03.2019 10:00:00 13,5 3,6 13,0 13,5 31 17 43 23 NNE 1025,1 20 41 0,0
20.03.2019 09:00:00 12,1 2,0 10,2 13,6 26 14 42 23 NNE 1025,1 20 55 0,0
20.03.2019 08:00:00 9,8 1,2 5,7 13,7 19 10 32 17 N 1024,4 20 56 0,0

tt = temperature
td = dewpoint
tt 5cm = temperature 5cm
tt -20cm = temperature -20cm
ff = wind speed
fx = gusts
dd = wind direction
ppp = reduced air pressure
vv = visibility
sd = sunshine duration
rr = precipitation

Next stations